Terug naar catalogus

DELTA 1 DEB

ActiefSSO
NORAD 21273·DEBRIS·🇺🇸 United States

Gelanceerd Jun 12, 1975 vanaf Vandenberg Space Force Base

Loading…

Volgende Passages (komende 24 uur)

TLE

VersSource: Space-Track

Epoch: Sep 14, 2026, 12:06 UTC

1 21273U 75052J   26257.50460561 -.00000006  00000-0  68086-4 0  9992
2 21273  99.6772  95.5539 0036670  41.6551 349.3338 13.37962158505320

Volg DELTA 1 DEB in realtime met AllMySat

Download on the App Store